Regional Weather Roundup
Issued by NWS Charleston, SC

Current Version | Previous Version | Graphics & Text | Print | Product List | Glossary On
Versions: 1 2 3 4 5 6 7 8 9 10 11 12 13 14 15 16 17 18 19 20 21 22 23 24 25 26 27 28 29 30 31 32 33 34 35 36 37 38 39 40 41 42 43 44 45 46 47 48 49 50
000
ASUS42 KCHS 010010
RWRCHS

REGIONAL WEATHER ROUNDUP
NATIONAL WEATHER SERVICE CHARLESTON SC
800 PM EDT TUE SEP 30 2014

NOTE: "FAIR" INDICATES FEW OR NO CLOUDS BELOW 12,000 FEET WITH NO
SIGNIFICANT WEATHER AND/OR OBSTRUCTIONS TO VISIBILITY.

NOT ALL STATIONS ARE QUALITY CONTROLLED BY THE NATIONAL
WEATHER SERVICE. USE DATA WITH CAUTION...ESPECIALLY
DEWPOINT OBSERVATIONS.

SCZ027-030-031-034>040-042>050-010100-
...SOUTH CAROLINA...

CITY           SKY/WX    TMP DP  RH WIND       PRES   REMARKS
N CHARLESTON   PTCLDY    74  66  76 N3        29.87R
6HR MIN TEMP:  74; 6HR MAX TEMP:  84;

WATERFRONT PRK   N/A     75 N/A N/A CALM        N/A
FORT JOHNSON   NOT AVBL
MOUNT PLEASANT FAIR      70  66  88 CALM      29.87R
JOHNS ISLAND   CLEAR     72  72 100 CALM      29.88R
PINOPOLIS        N/A     77  68  73 MISG      29.78R
MONCKS CORNER  FAIR      72  70  94 CALM      29.87R
SUMMERVILLE    FAIR      70  70 100 CALM      29.89R
BEAUFORT MCAS  CLEAR     73  68  84 CALM      29.87R
6HR MIN TEMP:  73; 6HR MAX TEMP:  83;

BEAUFORT ARPT  FAIR      70  68  94 CALM      29.87R
HILTON HEAD IS CLEAR     70  68  94 CALM      29.88R
GEORGETOWN     NOT AVBL
WALTERBORO     CLEAR     72  72 100 CALM      29.88S
ORANGEBURG     CLEAR     71  65  81 CALM      29.88R
6HR MIN TEMP:  71; 6HR MAX TEMP:  83;

BARNWELL       FAIR      72  66  83 CALM      29.88R
AIKEN          FAIR      70  66  88 CALM      29.93R
MANNING        FAIR      70  70 100 CALM      29.88R
KINGSTREE      NOT AVBL
COLUMBIA       PTCLDY    75  63  66 CALM      29.88R
6HR MIN TEMP:  75; 6HR MAX TEMP:  85;

SUMTER         CLEAR     74  65  73 CALM      29.87R
6HR MIN TEMP:  74; 6HR MAX TEMP:  83;

FLORENCE       CLEAR     71  66  84 CALM      29.87R
6HR MIN TEMP:  71; 6HR MAX TEMP:  82;

MYRTLE BEACH   PTCLDY    73  64  73 N8        29.86R
N MYRTLE BEACH MOCLDY    71  66  84 CALM      29.86R
6HR MIN TEMP:  71; 6HR MAX TEMP:  83;


$$

GAZ063-065-086>088-099>101-113>116-118-119-134-136>141-150-010100-
...GEORGIA...

CITY           SKY/WX    TMP DP  RH WIND       PRES   REMARKS
SAVANNAH ARPT  PTCLDY    75  66  73 CALM      29.88R
6HR MIN TEMP:  74; 6HR MAX TEMP:  85;

HUNTER AAF     CLEAR     73  68  86 SE3       29.86R
6HR MIN TEMP:  73; 6HR MAX TEMP:  83; 6HR PCP: TRACE;

FORT STEWART   CLEAR     73  69  87 CALM      29.86R
6HR MIN TEMP:  73; 6HR MAX TEMP:  81; 6HR PCP: TRACE;

STATESBORO     NOT AVBL
SYLVANIA       CLEAR     73  70  91 CALM      29.89R
CLAXTON        FAIR      73  73 100 CALM      29.88R
THOMSON        CLEAR     71  71 100 CALM      29.94R
AUGUSTA-BUSH   CLEAR     72  65  78 CALM      29.87R
6HR MIN TEMP:  69; 6HR MAX TEMP:  84;

AUGUSTA-DANIEL CLEAR     77  64  64 N5        29.89R
SWAINSBORO     FAIR      73  72  94 CALM      29.90R
VIDALIA        CLEAR     72  70  94 CALM      29.89R
ALMA           CLOUDY    75  69  81 CALM      29.88R
6HR MIN TEMP:  74; 6HR MAX TEMP:  79;

WAYCROSS       CLOUDY    78  74  88 CALM      29.88R
JESUP          FAIR      73  72  94 CALM      29.88R
BRUNSWICK      CLEAR     72  68  88 E3        29.88S
SAINT SIMONS   CLEAR     73  67  81 NE3       29.88R
6HR MIN TEMP:  73; 6HR MAX TEMP:  80;


$$

SCZ027-028-034-036>038-045-046-048>050-GAZ119-141-010100-
...LAKE AND SUPPLEMENTAL COASTAL OBSERVATIONS...

STATION/POSITION TIME  TEMP    WIND        PRES    WAVE   SWELL
                       AIR SEA DIR/SP/G            HT/PER HT/PER/DIR
                 (UTC) (F)     (DEG/KT/KT) (MB)    (FT/S) (FT/S/D)
UPR LAKE MARION  NOT AVBL
WINYAH BAY       2300   76     100/  1     1010.0S
LAKE MURRAY      2300   76        CALM     1011.2R
ACE BASIN NERRS  2300   75        CALM     1011.0S
FORT PULASKI     0000   73     170/  2/  2 1011.9R
SAPELO ISLAND    NOT AVBL

$$

ANZ835-935-AMZ111-154-330-350-352-354-374-450-454-472-010100-
...C-MAN AND BUOY OBSERVATIONS...

STATION/POSITION TIME  TEMP    WIND        PRES    WAVE   SWELL
                       AIR SEA DIR/SP/G            HT/PER HT/PER/DIR
                 (UTC) (F)     (DEG/KT/KT) (MB)    (FT/S) (FT/S/D)
FOLLY BEACH CMAN 2300   75      90/  2/  3 1011.5R
BUOY 41004       0000   77 81   30/ 12/ 14 1010.5R   4/ 6   3/ 6
BUOY 41008       0000   76 79   40/ 10/ 14 1011.4R   3/ 6   2/ 70/ 6
5E ST. MARYS GA  0000      79                N/A     3/ 6
FRYING PAN BUOY  NOT AVBL
BUOY 41025       0000   72     360/ 17/ 21 1010.1R   4/ 6   2/ 60/ 9
CAPE LOOKOUT NC  2300   73      20/ 10/ 11 1010.4R
BUOY 41002       NOT AVBL
BUOY 41010       0000   80 84  320/ 10/ 10 1009.9R   3/ 5   3/290/ 5
BUOY 41012       NOT AVBL
ST AUGUSTINE FL  0000   77      10/ 14/ 16 1011.7R
CAPERS NEARSHORE 2300   76      80/  4/  4   N/A
FRIPP NEARSHORE  NOT AVBL


$$



USA.gov is the U.S. government's official web portal to all federal, state and local government web resources and services.